SCP
-0 -0 -0 -0 -0 -0 -0 -0 -0 -0 -0 -0 -0 -0 -0 -0 -0 -0 -0 -0 -0 -0 -0 -0 -0 -0 -0 -0 -0 -0 -0 -0 0 0 0 -0 -0 0 0 0 0 0 0
-0 -0 -0 -0 -0 -0 -0 -0 -0 -0 -0 0 0 0 -0 -0 -0 -0 -0 -0 -0 -0 -0 -0 -0 -0 -0 -0 -0 -0 0 0 0 0 0 0 -0 0 0 0 0 0 0
-0 -0 -0 -0 -0 -0 -0 -0 -0 -0 -0 0 0 0 -0 -0 -0 -0 -0 -0 -0 -0 -0 -0 -0 -0 -0 -0 -0 0 0 0 0 0 0 0 0 0 0 0 1 0 0
0 0 0 -0 -0 -0 -0 -0 -0 -0 -0 0 0 -0 -0 -0 -0 -0 -0 0 0 -0 -0 -0 -0 -0 -0 -0 -0 0 0 0 0 0 0 0 0 0 0 1 1 0 0
0 0 0 -0 -0 -0 -0 -0 -0 -0 -0 -0 -0 -0 -0 -0 -0 -0 -0 0 0 -0 -0 -0 -0 -0 -0 -0 0 0 0 0 0 0 0 0 0 1 1 0 0 0 0
0 0 0 -0 -0 -0 -0 -0 -0 -0 -0 -0 -0 -0 -0 -0 -0 -0 0 0 -0 -0 -0 -0 -0 -0 -0 -0 0 0 0 0 0 0 0 0 0 1 1 0 0 0 0
0 0 0 -0 -0 -0 -0 -0 -0 -0 -0 -0 -0 -0 -0 -0 -0 0 0 0 -0 -0 -0 -0 -0 -0 0 0 0 0 0 0 0 0 0 0 0 1 0 0 0 0 0
-0 -0 -0 -0 -0 -0 -0 -0 -0 -0 -0 -0 -0 -0 -0 -0 0 0 0 0 -0 -0 -0 -0 0 0 0 0 0 0 0 0 0 0 0 0 0 0 0 0 0 0 0
-0 -0 -0 -0 -0 -0 -0 -0 -0 -0 -0 -0 -0 -0 -0 -0 0 0 0 0 -0 0 0 0 0 0 0 0 0 0 0 0 0 0 0 0 0 0 0 0 0 0 0
-0 -0 -0 -0 -0 -0 -0 -0 -0 -0 -0 -0 -0 -0 -0 -0 0 0 0 0 0 0 0 0 0 0 0 0 0 0 0 0 0 0 0 0 0 0 0 0 0 0 0
0 0 -0 -0 -0 -0 -0 -0 -0 -0 -0 -0 -0 -0 -0 0 0 0 0 0 0 0 0 0 0 0 0 0 0 0 0 0 0 0 0 0 0 0 0 0 0 0 0
-0 0 -0 -0 -0 -0 -0 -0 -0 -0 -0 -0 -0 0 0 0 0 0 0 0 0 0 0 0 0 0 0 0 0 0 0 0 0 0 0 0 0 0 0 0 0 0 0
-0 -0 -0 -0 -0 -0 -0 -0 -0 -0 -0 -0 -0 -0 -0 0 0 -0 -0 -0 0 0 0 0 0 0 0 0 0 0 0 0 0 0 0 0 0 0 0 0 0 0 0
-0 -0 -0 -0 -0 -0 -0 -0 -0 -0 -0 -0 -0 -0 0 0 0 0 0 0 0 0 0 0 0 0 0 0 0 0 0 0 0 0 0 0 0 0 0 0 0 0 0
-0 -0 -0 -0 -0 -0 0 0 0 -0 0 -0 0 0 0 0 0 0 0 0 0 0 0 0 0 0 0 0 0 0 0 0 0 0 0 0 0 0 0 0 0 0 0
-0 -0 -0 -0 -0 -0 -0 -0 -0 0 0 0 0 0 0 0 0 0 0 0 0 0 0 0 0 0 0 0 0 0 0 0 0 0 0 0 0 0 0 0 0 0 0
-0 -0 -0 -0 -0 -0 -0 -0 0 0 0 0 0 0 0 0 0 0 0 0 0 0 0 0 0 0 0 0 0 0 0 0 0 0 0 0 0 0 0 0 0 0 0
-0 -0 -0 -0 -0 -0 -0 -0 0 0 0 0 0 0 0 0 0 0 0 0 0 0 0 0 0 0 0 0 0 0 0 0 0 0 0 0 0 0 0 0 0 0 0
-0 0 0 -0 -0 -0 -0 0 0 0 0 0 0 0 0 0 0 0 0 0 0 0 0 0 0 0 0 0 0 0 0 0 0 0 0 0 0 0 0 0 0 0 0
-0 -0 0 0 0 -0 0 0 0 0 0 0 0 0 0 0 0 0 0 0 0 0 0 0 0 0 0 0 0 0 0 0 0 0 0 0 0 0 0 0 0 0 0
0 0 0 0 0 0 0 0 0 0 0 0 0 0 0 0 0 0 0 0 0 0 0 0 0 0 0 0 0 0 0 0 0 0 0 0 0 0 0 0 0 0 0
0 0 0 0 0 0 0 1 1 0 0 0 0 0 0 0 0 0 0 0 0 0 0 0 0 0 0 0 0 0 0 0 0 0 0 0 0 0 0 0 0 0 0
0 0 0 0 0 0 1 1 1 1 1 1 0 0 0 0 0 0 0 0 0 0 0 0 0 0 0 0 0 0 0 0 0 0 0 0 0 0 0 0 0 0 0
0 0 0 0 0 1 2 2 2 2 2 1 1 0 0 0 0 0 0 0 0 0 0 0 0 0 0 0 0 0 0 0 0 0 0 0 0 0 0 0 0 0 0
0 0 0 1 1 2 2 3 3 3 1 0 0 0 0 0 0 0 0 0 0 0 0 0 0 0 0 0 0 0 0 0 0 0 0 0 0 0 0 0 0 0 0
1 1 2 2 3 4 2 3 3 3 1 1 0 0 0 0 0 0 0 0 0 0 0 0 0 0 0 0 0 0 0 0 0 0 0 0 0 0 0 0 0 0 0
Wind_Speed_500mb
54 55 54 47 42 41 41 40 38 36 33 32 30 29 27 25 23 21 21 20 21 20 21 22 22 21 19 18 18 16 14 13 12 12 10 8 7 8 9 8 9 12 15
57 60 59 52 44 40 41 41 39 37 34 32 32 31 29 27 24 22 20 20 20 19 19 21 22 23 22 19 16 15 14 10 6 4 3 7 14 18 17 15 14 16 15
59 61 60 54 47 42 42 41 38 34 31 29 29 29 28 25 21 19 17 17 18 20 23 25 24 22 19 17 17 16 12 9 6 6 13 16 18 16 18 24 22 20 18
59 62 62 55 48 43 42 39 36 32 28 28 27 26 24 21 18 15 14 16 20 23 24 23 21 18 15 14 13 9 6 1 6 15 20 23 27 25 19 26 27 27 26
63 63 61 56 50 44 41 39 34 31 28 26 25 23 21 17 14 12 12 17 20 21 21 21 18 14 10 7 4 0 3 7 12 19 25 27 25 25 25 23 28 32 30
62 60 59 56 50 44 41 37 34 31 27 24 22 21 19 16 12 9 12 16 17 18 17 15 12 8 3 1 4 6 10 15 16 21 24 21 19 17 14 20 27 30 29
57 58 57 54 49 45 40 38 34 29 24 21 21 20 17 13 10 7 12 15 15 15 13 11 9 5 5 7 10 13 17 19 15 20 22 26 26 24 24 23 23 27 33
53 54 53 51 48 44 41 37 32 27 23 22 20 18 16 13 10 8 10 14 14 13 11 9 7 8 10 12 16 21 23 21 16 24 30 33 36 34 34 32 33 35 36
51 52 51 50 47 44 40 35 32 28 25 21 20 19 18 15 12 10 11 13 13 10 7 7 9 12 14 17 20 21 19 19 19 28 36 46 45 42 34 30 32 39 47
56 52 50 48 46 44 42 38 34 30 26 23 22 22 19 17 14 11 11 12 10 7 6 9 14 16 19 21 19 20 22 24 32 40 49 57 40 32 32 37 45 49 51
59 52 49 47 46 44 41 38 35 32 29 27 25 24 22 19 17 16 11 11 11 9 8 11 13 18 24 21 23 25 29 31 41 49 54 37 30 37 43 47 45 44 45
59 53 54 51 50 47 43 39 36 34 32 29 27 25 24 23 22 21 17 16 14 13 13 14 18 23 23 24 27 31 33 43 51 53 37 33 38 43 46 40 43 43 45
51 52 51 49 50 48 46 43 41 38 34 33 32 30 28 28 28 23 22 19 15 15 16 20 22 24 27 32 35 36 43 51 50 39 36 38 43 44 42 42 40 43 48
62 49 50 49 50 50 47 46 41 38 33 36 35 33 33 31 30 26 24 23 24 21 23 26 29 32 36 38 40 44 50 54 48 40 39 42 44 43 43 43 41 44 42
63 56 51 52 48 50 49 49 46 43 34 29 34 32 32 30 29 28 28 27 26 27 30 32 33 35 38 41 44 51 52 53 48 48 49 52 52 45 41 44 46 39 36
59 63 53 56 52 52 49 45 48 45 33 27 30 27 28 26 24 24 28 31 35 37 34 32 35 40 42 44 45 48 46 44 48 52 55 46 44 44 33 27 35 37 32
58 61 62 59 58 57 49 42 46 45 41 36 31 32 32 29 28 30 31 32 37 39 40 40 42 41 43 46 50 50 48 51 54 54 54 48 45 30 28 27 28 27 29
62 68 65 63 65 61 56 47 47 46 45 40 39 38 38 36 36 38 36 35 41 46 45 44 44 45 45 50 53 50 50 48 51 44 43 39 32 32 24 18 23 27 36
72 67 71 71 68 61 55 53 47 45 49 47 44 44 44 41 41 43 38 44 48 46 43 44 43 45 48 49 47 50 48 48 38 34 20 18 20 20 20 23 26 26 34
79 76 73 76 75 66 61 57 53 52 53 56 52 49 46 46 46 46 43 47 52 46 41 43 44 45 43 45 51 52 51 48 35 23 27 22 20 18 17 17 21 26 27
88 86 83 84 82 77 70 66 63 63 60 63 61 55 54 52 49 49 50 46 58 45 39 44 42 40 40 46 52 52 50 33 13 24 17 19 15 18 19 18 18 19 23
92 98 94 90 86 77 73 69 69 64 67 70 69 68 61 57 51 54 35 26 68 49 43 38 38 36 39 44 44 44 20 31 10 15 26 18 16 17 18 23 28 31 39
95 99 95 93 89 79 74 74 75 74 73 76 78 72 63 53 65 64 27 26 54 45 37 33 32 36 39 39 36 27 11 8 34 16 24 20 29 29 27 38 43 49 55
97 96 93 90 89 79 77 76 85 85 76 75 69 66 63 67 64 53 24 46 38 33 31 27 32 37 39 33 31 30 24 24 13 16 21 23 24 32 43 51 51 50 48
94 91 86 85 86 79 76 77 82 80 78 70 74 64 59 67 62 50 37 24 22 25 25 28 34 38 31 31 29 25 21 18 21 24 35 37 31 38 41 49 52 56 60
87 85 78 77 82 84 80 77 73 72 70 72 63 60 57 62 53 39 16 16 22 20 23 31 35 30 28 29 23 18 16 20 26 33 42 46 47 46 51 58 51 54 59
Wind_Direction_500mb
178 170 165 170 172 164 160 157 155 152 149 147 146 146 145 146 145 142 139 135 132 131 130 129 127 126 125 123 121 119 115 110 92 83 74 53 18 323 310 323 341 347 346
174 171 168 173 175 170 165 162 158 154 152 149 147 147 145 146 145 143 140 139 137 137 135 134 134 132 128 126 124 120 113 104 91 91 27 348 331 309 268 279 291 303 311
176 172 171 175 176 175 171 165 160 156 152 147 146 148 146 145 141 139 138 140 141 140 141 138 134 130 129 126 126 129 124 106 70 339 321 314 314 316 271 251 265 284 284
175 173 173 176 180 179 173 168 162 157 154 151 151 150 148 144 137 132 132 135 139 142 142 139 139 138 133 129 133 139 133 99 334 312 310 305 306 307 287 256 265 285 283
176 173 174 177 182 182 176 170 165 163 161 158 157 154 152 143 133 124 128 135 140 146 149 150 151 149 142 134 129 94 315 311 319 312 312 311 306 297 293 285 275 285 276
175 173 176 180 184 184 178 173 172 171 167 164 159 159 158 151 139 129 138 145 155 157 159 162 164 163 164 266 300 309 311 317 320 322 322 323 331 342 323 289 283 278 280
175 175 179 182 185 185 180 180 180 176 171 167 169 168 167 161 154 151 159 163 167 166 175 185 197 212 265 294 302 302 305 310 313 334 314 315 318 316 316 303 289 286 290
179 178 183 184 186 185 184 186 184 182 180 180 181 178 178 180 179 182 174 175 177 182 191 209 238 270 286 295 297 301 304 307 306 320 324 315 308 306 307 302 293 294 296
183 180 185 186 186 188 189 191 192 191 192 193 191 191 194 196 203 198 193 191 190 198 216 249 271 278 283 285 294 302 306 309 297 308 321 321 311 306 310 299 298 299 303
184 184 187 189 190 192 193 196 197 200 201 202 202 205 206 211 218 216 210 206 198 207 240 273 275 280 278 282 294 302 301 305 310 306 311 315 305 307 308 307 306 308 308
185 189 192 195 196 199 199 200 202 206 208 211 212 213 217 223 230 222 213 197 185 210 261 277 279 269 269 277 292 297 296 299 307 312 311 307 304 305 308 310 312 310 314
187 192 199 201 201 201 205 207 209 211 213 217 221 223 226 230 235 228 211 209 231 238 244 265 274 278 277 279 293 297 294 300 309 311 303 299 301 307 312 311 309 307 314
190 195 199 203 206 207 209 211 212 214 217 220 222 226 229 234 239 225 218 226 235 251 260 265 276 287 280 290 293 291 301 309 310 303 301 303 308 313 310 307 301 304 312
199 203 202 203 208 210 214 216 217 217 220 225 225 229 233 235 229 229 236 240 243 254 262 263 275 284 286 289 291 298 304 306 302 302 305 305 304 300 297 301 299 303 307
208 208 211 207 209 212 213 219 218 214 223 230 225 229 230 230 234 243 248 248 251 259 269 274 275 284 283 286 291 299 302 299 298 301 303 298 293 290 294 297 293 298 300
213 214 216 210 210 211 214 213 211 219 221 222 218 222 224 229 239 253 257 262 264 268 276 277 282 285 285 287 292 297 299 301 306 304 303 294 289 292 299 289 297 303 300
221 221 219 216 213 214 215 213 215 221 224 224 226 229 232 238 249 258 267 274 278 276 275 274 277 282 288 295 300 304 304 308 308 304 299 296 293 284 282 295 297 308 308
225 224 222 220 218 220 220 221 222 224 228 232 235 237 241 244 248 255 266 275 276 273 269 268 275 283 286 291 296 297 303 308 310 306 308 310 295 284 271 280 298 304 305
228 226 225 223 224 226 229 230 233 235 234 238 239 242 245 246 249 254 266 267 269 263 266 269 274 277 286 294 298 305 311 314 313 308 323 313 303 287 276 279 286 286 286
231 231 229 229 226 229 231 233 234 236 238 241 240 242 246 248 252 248 258 259 265 267 269 272 276 284 293 298 305 310 312 313 304 285 294 310 321 306 299 302 300 288 274
232 233 232 229 229 227 229 229 232 239 241 239 247 254 255 255 252 247 250 263 269 266 271 278 281 288 294 303 309 309 314 318 293 288 311 314 298 312 336 324 316 311 293
230 234 232 231 231 233 232 235 236 244 245 247 250 251 252 256 252 241 232 314 279 269 276 279 284 292 302 309 307 317 323 303 257 298 315 305 303 325 323 318 322 318 311
230 233 233 231 231 233 234 235 233 237 238 241 242 245 248 252 258 238 256 291 263 270 270 281 290 303 310 306 307 314 309 276 310 289 318 303 306 315 322 323 321 321 317
229 231 234 231 233 233 236 234 234 237 238 243 244 244 250 252 231 245 254 271 262 264 278 292 303 312 309 305 309 311 299 298 309 317 323 330 321 321 324 326 325 324 322
229 232 236 233 232 235 237 240 241 244 247 252 253 248 250 244 237 247 248 246 253 269 287 303 311 311 308 308 310 306 298 309 322 314 319 329 320 316 319 317 315 317 324
229 234 236 236 235 233 235 240 245 249 254 257 255 264 260 241 237 239 231 253 274 283 299 305 312 315 313 314 311 307 294 303 314 310 310 313 314 313 316 315 317 321 326
Wind_Speed_850mb
54 55 54 47 42 41 41 40 38 36 33 32 30 29 27 25 23 21 21 20 21 20 21 22 22 21 19 18 18 16 14 13 12 12 10 8 7 8 9 8 9 12 15
57 60 59 52 44 40 41 41 39 37 34 32 32 31 29 27 24 22 20 20 20 19 19 21 22 23 22 19 16 15 14 10 6 4 3 7 14 18 17 15 14 16 15
59 61 60 54 47 42 42 41 38 34 31 29 29 29 28 25 21 19 17 17 18 20 23 25 24 22 19 17 17 16 12 9 6 6 13 16 18 16 18 24 22 20 18
59 62 62 55 48 43 42 39 36 32 28 28 27 26 24 21 18 15 14 16 20 23 24 23 21 18 15 14 13 9 6 1 6 15 20 23 27 25 19 26 27 27 26
63 63 61 56 50 44 41 39 34 31 28 26 25 23 21 17 14 12 12 17 20 21 21 21 18 14 10 7 4 0 3 7 12 19 25 27 25 25 25 23 28 32 30
62 60 59 56 50 44 41 37 34 31 27 24 22 21 19 16 12 9 12 16 17 18 17 15 12 8 3 1 4 6 10 15 16 21 24 21 19 17 14 20 27 30 29
57 58 57 54 49 45 40 38 34 29 24 21 21 20 17 13 10 7 12 15 15 15 13 11 9 5 5 7 10 13 17 19 15 20 22 26 26 24 24 23 23 27 33
53 54 53 51 48 44 41 37 32 27 23 22 20 18 16 13 10 8 10 14 14 13 11 9 7 8 10 12 16 21 23 21 16 24 30 33 36 34 34 32 33 35 36
51 52 51 50 47 44 40 35 32 28 25 21 20 19 18 15 12 10 11 13 13 10 7 7 9 12 14 17 20 21 19 19 19 28 36 46 45 42 34 30 32 39 47
56 52 50 48 46 44 42 38 34 30 26 23 22 22 19 17 14 11 11 12 10 7 6 9 14 16 19 21 19 20 22 24 32 40 49 57 40 32 32 37 45 49 51
59 52 49 47 46 44 41 38 35 32 29 27 25 24 22 19 17 16 11 11 11 9 8 11 13 18 24 21 23 25 29 31 41 49 54 37 30 37 43 47 45 44 45
59 53 54 51 50 47 43 39 36 34 32 29 27 25 24 23 22 21 17 16 14 13 13 14 18 23 23 24 27 31 33 43 51 53 37 33 38 43 46 40 43 43 45
51 52 51 49 50 48 46 43 41 38 34 33 32 30 28 28 28 23 22 19 15 15 16 20 22 24 27 32 35 36 43 51 50 39 36 38 43 44 42 42 40 43 48
62 49 50 49 50 50 47 46 41 38 33 36 35 33 33 31 30 26 24 23 24 21 23 26 29 32 36 38 40 44 50 54 48 40 39 42 44 43 43 43 41 44 42
63 56 51 52 48 50 49 49 46 43 34 29 34 32 32 30 29 28 28 27 26 27 30 32 33 35 38 41 44 51 52 53 48 48 49 52 52 45 41 44 46 39 36
59 63 53 56 52 52 49 45 48 45 33 27 30 27 28 26 24 24 28 31 35 37 34 32 35 40 42 44 45 48 46 44 48 52 55 46 44 44 33 27 35 37 32
58 61 62 59 58 57 49 42 46 45 41 36 31 32 32 29 28 30 31 32 37 39 40 40 42 41 43 46 50 50 48 51 54 54 54 48 45 30 28 27 28 27 29
62 68 65 63 65 61 56 47 47 46 45 40 39 38 38 36 36 38 36 35 41 46 45 44 44 45 45 50 53 50 50 48 51 44 43 39 32 32 24 18 23 27 36
72 67 71 71 68 61 55 53 47 45 49 47 44 44 44 41 41 43 38 44 48 46 43 44 43 45 48 49 47 50 48 48 38 34 20 18 20 20 20 23 26 26 34
79 76 73 76 75 66 61 57 53 52 53 56 52 49 46 46 46 46 43 47 52 46 41 43 44 45 43 45 51 52 51 48 35 23 27 22 20 18 17 17 21 26 27
88 86 83 84 82 77 70 66 63 63 60 63 61 55 54 52 49 49 50 46 58 45 39 44 42 40 40 46 52 52 50 33 13 24 17 19 15 18 19 18 18 19 23
92 98 94 90 86 77 73 69 69 64 67 70 69 68 61 57 51 54 35 26 68 49 43 38 38 36 39 44 44 44 20 31 10 15 26 18 16 17 18 23 28 31 39
95 99 95 93 89 79 74 74 75 74 73 76 78 72 63 53 65 64 27 26 54 45 37 33 32 36 39 39 36 27 11 8 34 16 24 20 29 29 27 38 43 49 55
97 96 93 90 89 79 77 76 85 85 76 75 69 66 63 67 64 53 24 46 38 33 31 27 32 37 39 33 31 30 24 24 13 16 21 23 24 32 43 51 51 50 48
94 91 86 85 86 79 76 77 82 80 78 70 74 64 59 67 62 50 37 24 22 25 25 28 34 38 31 31 29 25 21 18 21 24 35 37 31 38 41 49 52 56 60
87 85 78 77 82 84 80 77 73 72 70 72 63 60 57 62 53 39 16 16 22 20 23 31 35 30 28 29 23 18 16 20 26 33 42 46 47 46 51 58 51 54 59
Wind_Direction_850mb
178 170 165 170 172 164 160 157 155 152 149 147 146 146 145 146 145 142 139 135 132 131 130 129 127 126 125 123 121 119 115 110 92 83 74 53 18 323 310 323 341 347 346
174 171 168 173 175 170 165 162 158 154 152 149 147 147 145 146 145 143 140 139 137 137 135 134 134 132 128 126 124 120 113 104 91 91 27 348 331 309 268 279 291 303 311
176 172 171 175 176 175 171 165 160 156 152 147 146 148 146 145 141 139 138 140 141 140 141 138 134 130 129 126 126 129 124 106 70 339 321 314 314 316 271 251 265 284 284
175 173 173 176 180 179 173 168 162 157 154 151 151 150 148 144 137 132 132 135 139 142 142 139 139 138 133 129 133 139 133 99 334 312 310 305 306 307 287 256 265 285 283
176 173 174 177 182 182 176 170 165 163 161 158 157 154 152 143 133 124 128 135 140 146 149 150 151 149 142 134 129 94 315 311 319 312 312 311 306 297 293 285 275 285 276
175 173 176 180 184 184 178 173 172 171 167 164 159 159 158 151 139 129 138 145 155 157 159 162 164 163 164 266 300 309 311 317 320 322 322 323 331 342 323 289 283 278 280
175 175 179 182 185 185 180 180 180 176 171 167 169 168 167 161 154 151 159 163 167 166 175 185 197 212 265 294 302 302 305 310 313 334 314 315 318 316 316 303 289 286 290
179 178 183 184 186 185 184 186 184 182 180 180 181 178 178 180 179 182 174 175 177 182 191 209 238 270 286 295 297 301 304 307 306 320 324 315 308 306 307 302 293 294 296
183 180 185 186 186 188 189 191 192 191 192 193 191 191 194 196 203 198 193 191 190 198 216 249 271 278 283 285 294 302 306 309 297 308 321 321 311 306 310 299 298 299 303
184 184 187 189 190 192 193 196 197 200 201 202 202 205 206 211 218 216 210 206 198 207 240 273 275 280 278 282 294 302 301 305 310 306 311 315 305 307 308 307 306 308 308
185 189 192 195 196 199 199 200 202 206 208 211 212 213 217 223 230 222 213 197 185 210 261 277 279 269 269 277 292 297 296 299 307 312 311 307 304 305 308 310 312 310 314
187 192 199 201 201 201 205 207 209 211 213 217 221 223 226 230 235 228 211 209 231 238 244 265 274 278 277 279 293 297 294 300 309 311 303 299 301 307 312 311 309 307 314
190 195 199 203 206 207 209 211 212 214 217 220 222 226 229 234 239 225 218 226 235 251 260 265 276 287 280 290 293 291 301 309 310 303 301 303 308 313 310 307 301 304 312
199 203 202 203 208 210 214 216 217 217 220 225 225 229 233 235 229 229 236 240 243 254 262 263 275 284 286 289 291 298 304 306 302 302 305 305 304 300 297 301 299 303 307
208 208 211 207 209 212 213 219 218 214 223 230 225 229 230 230 234 243 248 248 251 259 269 274 275 284 283 286 291 299 302 299 298 301 303 298 293 290 294 297 293 298 300
213 214 216 210 210 211 214 213 211 219 221 222 218 222 224 229 239 253 257 262 264 268 276 277 282 285 285 287 292 297 299 301 306 304 303 294 289 292 299 289 297 303 300
221 221 219 216 213 214 215 213 215 221 224 224 226 229 232 238 249 258 267 274 278 276 275 274 277 282 288 295 300 304 304 308 308 304 299 296 293 284 282 295 297 308 308
225 224 222 220 218 220 220 221 222 224 228 232 235 237 241 244 248 255 266 275 276 273 269 268 275 283 286 291 296 297 303 308 310 306 308 310 295 284 271 280 298 304 305
228 226 225 223 224 226 229 230 233 235 234 238 239 242 245 246 249 254 266 267 269 263 266 269 274 277 286 294 298 305 311 314 313 308 323 313 303 287 276 279 286 286 286
231 231 229 229 226 229 231 233 234 236 238 241 240 242 246 248 252 248 258 259 265 267 269 272 276 284 293 298 305 310 312 313 304 285 294 310 321 306 299 302 300 288 274
232 233 232 229 229 227 229 229 232 239 241 239 247 254 255 255 252 247 250 263 269 266 271 278 281 288 294 303 309 309 314 318 293 288 311 314 298 312 336 324 316 311 293
230 234 232 231 231 233 232 235 236 244 245 247 250 251 252 256 252 241 232 314 279 269 276 279 284 292 302 309 307 317 323 303 257 298 315 305 303 325 323 318 322 318 311
230 233 233 231 231 233 234 235 233 237 238 241 242 245 248 252 258 238 256 291 263 270 270 281 290 303 310 306 307 314 309 276 310 289 318 303 306 315 322 323 321 321 317
229 231 234 231 233 233 236 234 234 237 238 243 244 244 250 252 231 245 254 271 262 264 278 292 303 312 309 305 309 311 299 298 309 317 323 330 321 321 324 326 325 324 322
229 232 236 233 232 235 237 240 241 244 247 252 253 248 250 244 237 247 248 246 253 269 287 303 311 311 308 308 310 306 298 309 322 314 319 329 320 316 319 317 315 317 324
229 234 236 236 235 233 235 240 245 249 254 257 255 264 260 241 237 239 231 253 274 283 299 305 312 315 313 314 311 307 294 303 314 310 310 313 314 313 316 315 317 321 326